Powrót do katalogu

FENGYUN 1C DEB

AktywnySSO
NORAD 29875·DEBRIS·🇨🇳 China

Wystrzelony May 10, 1999 z Taiyuan Satellite Launch Center

Loading…

Następne Przeloty (najbliższe 24 godziny)

TLE

ŚwieżeSource: Space-Track

Epoka: Sep 14, 2026, 01:19 UTC

1 29875U 99025FV  26257.05555017  .00000036  00000-0  32194-4 0  9998
2 29875  98.3666 301.2173 0081645 336.5821  51.6876 14.24932485 22368

Śledź FENGYUN 1C DEB w czasie rzeczywistym z AllMySat

Download on the App Store